,,,PA_Meas_PMT16A,,PR_Meas_QMR101_102,,RH_Meas_QMH101,,SR_Meas_QMS101,,TA_Meas_QMH101,,GenWind,,GenWind,
date,time,status,PA,status,PR,status,RH,status,SR,status,TA,status,DirAvg,status,SpdAvg,
2014-12-11, 00:00:05,VALID,1010.08,VALID,0,INVALID,135.105,VALID,0,VALID,24.571,VALID,346,VALID,0,
2014-12-11, 00:01:05,VALID,1010.06,VALID,0,INVALID,135.304,VALID,0,VALID,24.5515,VALID,346,VALID,0,
2014-12-11, 00:02:05,VALID,1010.07,VALID,0,INVALID,135.86,VALID,0,VALID,24.532,VALID,346,VALID,0,
2014-12-11, 00:03:05,VALID,1010.07,VALID,0,INVALID,136.478,VALID,0,VALID,24.5515,VALID,346,VALID,0,
2014-12-11, 00:04:05,VALID,1010.05,VALID,0,INVALID,136.928,VALID,0,VALID,24.5515,VALID,346,VALID,0,
2014-12-11, 00:05:05,VALID,1010.04,VALID,0,INVALID,137.378,VALID,0,VALID,24.5515,VALID,346,VALID,0,
2014-12-11, 00:06:05,VALID,1010.03,VALID,0,INVALID,137.66,VALID,0,VALID,24.532,VALID,346,VALID,0,
2014-12-11, 00:07:05,VALID,1010.03,VALID,0,INVALID,137.82,VALID,0,VALID,24.5533,VALID,346,VALID,0,
2014-12-11, 00:08:05,VALID,1009.99,VALID,0,INVALID,137.973,VALID,0,VALID,24.532,VALID,346,VALID,0,
2014-12-11, 00:09:05,VALID,1010,VALID,0,INVALID,138.095,VALID,0,VALID,24.532,VALID,346,VALID,0,
2014-12-11, 00:10:05,VALID,1010,VALID,0,INVALID,138.148,VALID,0,VALID,24.5125,VALID,346,VALID,0,
2014-12-11, 00:11:05,VALID,1010,VALID,0,INVALID,138.171,VALID,0,VALID,24.5125,VALID,346,VALID,0,
2014-12-11, 00:12:05,VALID,1009.97,VALID,0,INVALID,138.285,VALID,0,VALID,24.5125,VALID,346,VALID,0,
2014-12-11, 00:13:05,VALID,1009.93,VALID,0,INVALID,138.346,VALID,0,VALID,24.493,VALID,346,VALID,0,
2014-12-11, 00:14:05,VALID,1009.92,VALID,0,INVALID,138.461,VALID,0,VALID,24.493,VALID,346,VALID,0,
2014-12-11, 00:15:05,VALID,1009.92,VALID,0,INVALID,138.514,VALID,0,VALID,24.4735,VALID,346,VALID,0,
2014-12-11, 00:16:05,VALID,1009.9,VALID,0,INVALID,138.583,VALID,0,VALID,24.4735,VALID,346,VALID,0,
2014-12-11, 00:17:05,VALID,1009.91,VALID,0,INVALID,138.629,VALID,0,VALID,24.4735,VALID,346,VALID,0,
2014-12-11, 00:18:05,VALID,1009.88,VALID,0,INVALID,138.682,VALID,0,VALID,24.454,VALID,346,VALID,0,
2014-12-11, 00:19:05,VALID,1009.86,VALID,0,INVALID,138.659,VALID,0,VALID,24.4559,VALID,346,VALID,0,
2014-12-11, 00:20:05,VALID,1009.86,VALID,0,INVALID,138.674,VALID,0,VALID,24.4364,VALID,346,VALID,0,
2014-12-11, 00:21:05,VALID,1009.85,VALID,0,INVALID,138.766,VALID,0,VALID,24.4345,VALID,346,VALID,0,
2014-12-11, 00:22:05,VALID,1009.79,VALID,0,INVALID,138.796,VALID,0,VALID,24.415,VALID,346,VALID,0,
2014-12-11, 00:23:05,VALID,1009.8,VALID,0,INVALID,138.873,VALID,0,VALID,24.3956,VALID,346,VALID,0,
2014-12-11, 00:24:05,VALID,1009.77,VALID,0,INVALID,138.888,VALID,0,VALID,24.3956,VALID,346,VALID,0,
2014-12-11, 00:25:05,VALID,1009.75,VALID,0,INVALID,138.911,VALID,0,VALID,24.3956,VALID,346,VALID,0,
2014-12-11, 00:26:05,VALID,1009.72,VALID,0,INVALID,138.995,VALID,0,VALID,24.3974,VALID,346,VALID,0,
2014-12-11, 00:27:05,VALID,1009.73,VALID,0,INVALID,139.017,VALID,0,VALID,24.3761,VALID,346,VALID,0,
2014-12-11, 00:28:05,VALID,1009.7,VALID,0,INVALID,139.04,VALID,0,VALID,24.3956,VALID,346,VALID,0,
2014-12-11, 00:29:05,VALID,1009.71,VALID,0,INVALID,139.109,VALID,0,VALID,24.4169,VALID,346,VALID,0,
2014-12-11, 00:30:05,VALID,1009.72,VALID,0,INVALID,139.117,VALID,0,VALID,24.3956,VALID,346,VALID,0,
2014-12-11, 00:31:05,VALID,1009.73,VALID,0,INVALID,139.124,VALID,0,VALID,24.415,VALID,346,VALID,0,
2014-12-11, 00:32:05,VALID,1009.74,VALID,0,INVALID,139.124,VALID,0,VALID,24.415,VALID,346,VALID,0,
2014-12-11, 00:33:05,VALID,1009.73,VALID,0,INVALID,139.124,VALID,0,VALID,24.415,VALID,346,VALID,0,
2014-12-11, 00:34:05,VALID,1009.76,VALID,0,INVALID,139.162,VALID,0,VALID,24.3956,VALID,346,VALID,0,
2014-12-11, 00:35:05,VALID,1009.79,VALID,0,INVALID,139.162,VALID,0,VALID,24.3956,VALID,346,VALID,0,
2014-12-11, 00:36:05,VALID,1009.8,VALID,0,INVALID,139.193,VALID,0,VALID,24.3956,VALID,346,VALID,0,
2014-12-11, 00:37:05,VALID,1009.78,VALID,0,INVALID,139.201,VALID,0,VALID,24.3761,VALID,346,VALID,0,
2014-12-11, 00:38:05,VALID,1009.79,VALID,0,INVALID,139.201,VALID,0,VALID,24.3956,VALID,346,VALID,0,
2014-12-11, 00:39:05,VALID,1009.77,VALID,0,INVALID,139.262,VALID,0,VALID,24.3956,VALID,346,VALID,0,
2014-12-11, 00:40:05,VALID,1009.75,VALID,0,INVALID,139.193,VALID,0,VALID,24.415,VALID,346,VALID,0,
2014-12-11, 00:41:05,VALID,1009.74,VALID,0,INVALID,139.193,VALID,0,VALID,24.3956,VALID,346,VALID,0,
2014-12-11, 00:42:05,VALID,1009.73,VALID,0,INVALID,139.147,VALID,0,VALID,24.3956,VALID,346,VALID,0,
2014-12-11, 00:43:05,VALID,1009.72,VALID,0,INVALID,139.101,VALID,0,VALID,24.415,VALID,346,VALID,0,
2014-12-11, 00:44:05,VALID,1009.74,VALID,0,INVALID,139.048,VALID,0,VALID,24.415,VALID,346,VALID,0,
2014-12-11, 00:45:05,VALID,1009.71,VALID,0,INVALID,139.002,VALID,0,VALID,24.4345,VALID,346,VALID,0,
2014-12-11, 00:46:05,VALID,1009.71,VALID,0,INVALID,139.017,VALID,0,VALID,24.415,VALID,346,VALID,0,
2014-12-11, 00:47:05,VALID,1009.72,VALID,0,INVALID,138.979,VALID,0,VALID,24.415,VALID,346,VALID,0,
2014-12-11, 00:48:05,VALID,1009.75,VALID,0,INVALID,139.01,VALID,0,VALID,24.415,VALID,346,VALID,0,
2014-12-11, 00:49:05,VALID,1009.74,VALID,0,INVALID,139.033,VALID,0,VALID,24.415,VALID,346,VALID,0,
2014-12-11, 00:50:05,VALID,1009.72,VALID,0,INVALID,139.071,VALID,0,VALID,24.3956,VALID,346,VALID,0,
2014-12-11, 00:51:05,VALID,1009.75,VALID,0,INVALID,139.101,VALID,0.112112,VALID,24.3956,VALID,346,VALID,0,
2014-12-11, 00:52:05,VALID,1009.73,VALID,0,INVALID,139.117,VALID,0,VALID,24.3956,VALID,346,VALID,0,
2014-12-11, 00:53:05,VALID,1009.74,VALID,0,INVALID,139.109,VALID,0,VALID,24.3956,VALID,346,VALID,0,
2014-12-11, 00:54:05,VALID,1009.71,VALID,0,INVALID,139.048,VALID,0,VALID,24.415,VALID,346,VALID,0,
2014-12-11, 00:55:05,VALID,1009.73,VALID,0,INVALID,139.063,VALID,0,VALID,24.4559,VALID,346,VALID,0,
2014-12-11, 00:56:05,VALID,1009.73,VALID,0,INVALID,139.01,VALID,0,VALID,24.454,VALID,346,VALID,0,
2014-12-11, 00:57:05,VALID,1009.72,VALID,0,INVALID,138.987,VALID,0,VALID,24.454,VALID,346,VALID,0,
2014-12-11, 00:58:05,VALID,1009.72,VALID,0,INVALID,138.995,VALID,0,VALID,24.4735,VALID,346,VALID,0,
2014-12-11, 00:59:05,VALID,1009.75,VALID,0,INVALID,138.995,VALID,0,VALID,24.4735,VALID,346,VALID,0,
2014-12-11, 01:00:05,VALID,1009.74,VALID,0,INVALID,139.017,VALID,0,VALID,24.493,VALID,346,VALID,0,
2014-12-11, 01:01:05,VALID,1009.75,VALID,0,INVALID,139.086,VALID,0,VALID,24.5125,VALID,346,VALID,0,
2014-12-11, 01:02:05,VALID,1009.72,VALID,0,INVALID,139.139,VALID,0,VALID,24.5125,VALID,346,VALID,0,
2014-12-11, 01:03:05,VALID,1009.71,VALID,0,INVALID,139.185,VALID,0,VALID,24.532,VALID,346,VALID,0,
2014-12-11, 01:04:05,VALID,1009.7,VALID,0,INVALID,139.269,VALID,0,VALID,24.532,VALID,346,VALID,0,
2014-12-11, 01:05:05,VALID,1009.69,VALID,0,INVALID,139.3,VALID,0,VALID,24.532,VALID,346,VALID,0,
2014-12-11, 01:06:05,VALID,1009.68,VALID,0,INVALID,139.406,VALID,0,VALID,24.532,VALID,346,VALID,0,
2014-12-11, 01:07:05,VALID,1009.65,VALID,0,INVALID,139.452,VALID,0,VALID,24.5515,VALID,346,VALID,0,
2014-12-11, 01:08:05,VALID,1009.67,VALID,0,INVALID,139.528,VALID,0,VALID,24.5515,VALID,346,VALID,0,
2014-12-11, 01:09:05,VALID,1009.63,VALID,0,INVALID,139.536,VALID,0,VALID,24.5533,VALID,346,VALID,0,
2014-12-11, 01:10:05,VALID,1009.62,VALID,0,INVALID,139.62,VALID,0,VALID,24.532,VALID,346,VALID,0,
2014-12-11, 01:11:05,VALID,1009.6,VALID,0,INVALID,139.62,VALID,0,VALID,24.5515,VALID,346,VALID,0,
2014-12-11, 01:12:05,VALID,1009.58,VALID,0,INVALID,139.704,VALID,0,VALID,24.571,VALID,346,VALID,0,
2014-12-11, 01:13:05,VALID,1009.59,VALID,0,INVALID,139.689,VALID,0,VALID,24.5515,VALID,346,VALID,0,
2014-12-11, 01:14:05,VALID,1009.56,VALID,0,INVALID,139.727,VALID,0,VALID,24.571,VALID,346,VALID,0,
2014-12-11, 01:15:05,VALID,1009.56,VALID,0,INVALID,139.673,VALID,0,VALID,24.571,VALID,346,VALID,0,
2014-12-11, 01:16:05,VALID,1009.56,VALID,0,INVALID,139.696,VALID,0,VALID,24.5515,VALID,346,VALID,0,
2014-12-11, 01:17:05,VALID,1009.58,VALID,0,INVALID,139.719,VALID,0,VALID,24.571,VALID,346,VALID,0,
2014-12-11, 01:18:05,VALID,1009.53,VALID,0,INVALID,139.589,VALID,0,VALID,24.5515,VALID,346,VALID,0,
2014-12-11, 01:19:05,VALID,1009.59,VALID,0,INVALID,139.422,VALID,0,VALID,24.532,VALID,346,VALID,0,
2014-12-11, 01:20:05,VALID,1009.54,VALID,0,INVALID,139.368,VALID,0,VALID,24.532,VALID,346,VALID,0,
2014-12-11, 01:21:05,VALID,1009.57,VALID,0,INVALID,139.414,VALID,0,VALID,24.5125,VALID,346,VALID,0,
2014-12-11, 01:22:05,VALID,1009.54,VALID,0,INVALID,139.445,VALID,0,VALID,24.493,VALID,346,VALID,0,
2014-12-11, 01:23:05,VALID,1009.53,VALID,0,INVALID,139.437,VALID,0,VALID,24.493,VALID,346,VALID,0,
2014-12-11, 01:24:05,VALID,1009.51,VALID,0,INVALID,139.544,VALID,0,VALID,24.4735,VALID,346,VALID,0,
2014-12-11, 01:25:05,VALID,1009.52,VALID,0,INVALID,139.635,VALID,0,VALID,24.454,VALID,346,VALID,0,
2014-12-11, 01:26:05,VALID,1009.51,VALID,0,INVALID,139.696,VALID,0,VALID,24.454,VALID,346,VALID,0,
2014-12-11, 01:27:05,VALID,1009.5,VALID,0,INVALID,139.788,VALID,0,VALID,24.454,VALID,346,VALID,0,
2014-12-11, 01:28:05,VALID,1009.49,VALID,0,INVALID,139.78,VALID,0,VALID,24.4345,VALID,346,VALID,0,
2014-12-11, 01:29:05,VALID,1009.49,VALID,0,INVALID,139.742,VALID,0,VALID,24.3956,VALID,346,VALID,0,
2014-12-11, 01:30:05,VALID,1009.47,VALID,0,INVALID,139.65,VALID,0,VALID,24.3742,VALID,346,VALID,0,
2014-12-11, 01:31:05,VALID,1009.46,VALID,0,INVALID,139.765,VALID,0,VALID,24.3761,VALID,346,VALID,0,
2014-12-11, 01:32:05,VALID,1009.45,VALID,0,INVALID,139.94,VALID,0,VALID,24.3761,VALID,346,VALID,0,
2014-12-11, 01:33:05,VALID,1009.42,VALID,0,INVALID,139.971,VALID,0,VALID,24.3566,VALID,346,VALID,0,
2014-12-11, 01:34:05,VALID,1009.41,VALID,0,INVALID,140.047,VALID,0,VALID,24.3566,VALID,346,VALID,0,
2014-12-11, 01:35:05,VALID,1009.39,VALID,0,INVALID,140.116,VALID,0,VALID,24.3371,VALID,346,VALID,0,
2014-12-11, 01:36:05,VALID,1009.4,VALID,0,INVALID,140.085,VALID,0.112112,VALID,24.3371,VALID,346,VALID,0,
2014-12-11, 01:37:05,VALID,1009.36,VALID,0,INVALID,140.1,VALID,0,VALID,24.2981,VALID,346,VALID,0,
2014-12-11, 01:38:05,VALID,1009.34,VALID,0,INVALID,140.123,VALID,0,VALID,24.2963,VALID,346,VALID,0,
2014-12-11, 01:39:05,VALID,1009.31,VALID,0,INVALID,140.1,VALID,0,VALID,24.2981,VALID,346,VALID,0,
2014-12-11, 01:40:05,VALID,1009.3,VALID,0,INVALID,140.077,VALID,0,VALID,24.2786,VALID,346,VALID,0,
2014-12-11, 01:41:05,VALID,1009.33,VALID,0,INVALID,140.039,VALID,0,VALID,24.2786,VALID,346,VALID,0,
2014-12-11, 01:42:05,VALID,1009.33,VALID,0,INVALID,140.039,VALID,0,VALID,24.2591,VALID,346,VALID,0,
2014-12-11, 01:43:05,VALID,1009.32,VALID,0,INVALID,140.039,VALID,0,VALID,24.2378,VALID,346,VALID,0,
2014-12-11, 01:44:05,VALID,1009.32,VALID,0,INVALID,139.963,VALID,0,VALID,24.2591,VALID,346,VALID,0,
2014-12-11, 01:45:05,VALID,1009.31,VALID,0,INVALID,139.925,VALID,0,VALID,24.2591,VALID,346,VALID,0,
2014-12-11, 01:46:05,VALID,1009.32,VALID,0,INVALID,139.826,VALID,0,VALID,24.2591,VALID,346,VALID,0,
2014-12-11, 01:47:05,VALID,1009.3,VALID,0,INVALID,139.757,VALID,0,VALID,24.2591,VALID,346,VALID,0,
2014-12-11, 01:48:05,VALID,1009.3,VALID,0,INVALID,139.635,VALID,0,VALID,24.2591,VALID,346,VALID,0,
2014-12-11, 01:49:05,VALID,1009.27,VALID,0,INVALID,139.589,VALID,0,VALID,24.2396,VALID,346,VALID,0,
2014-12-11, 01:50:05,VALID,1009.28,VALID,0,INVALID,139.551,VALID,0,VALID,24.2396,VALID,346,VALID,0,
2014-12-11, 01:51:05,VALID,1009.28,VALID,0,INVALID,139.46,VALID,0,VALID,24.2591,VALID,346,VALID,0,
2014-12-11, 01:52:05,VALID,1009.25,VALID,0,INVALID,139.384,VALID,0,VALID,24.2591,VALID,346,VALID,0,
2014-12-11, 01:53:05,VALID,1009.26,VALID,0,INVALID,139.284,VALID,0,VALID,24.2591,VALID,346,VALID,0,
2014-12-11, 01:54:05,VALID,1009.28,VALID,0,INVALID,139.239,VALID,0,VALID,24.2591,VALID,346,VALID,0,
2014-12-11, 01:55:05,VALID,1009.29,VALID,0,INVALID,139.178,VALID,0,VALID,24.2378,VALID,346,VALID,0,
2014-12-11, 01:56:05,VALID,1009.29,VALID,0,INVALID,139.132,VALID,0,VALID,24.2591,VALID,346,VALID,0,
2014-12-11, 01:57:05,VALID,1009.26,VALID,0,INVALID,139.056,VALID,0,VALID,24.2396,VALID,346,VALID,0,
2014-12-11, 01:58:05,VALID,1009.27,VALID,0,INVALID,138.987,VALID,0,VALID,24.2591,VALID,346,VALID,0,
2014-12-11, 01:59:05,VALID,1009.26,VALID,0,INVALID,138.895,VALID,0,VALID,24.2591,VALID,346,VALID,0,
2014-12-11, 02:00:05,VALID,1009.21,VALID,0,INVALID,138.865,VALID,0,VALID,24.2591,VALID,346,VALID,0,
2014-12-11, 02:01:05,VALID,1009.22,VALID,0,INVALID,138.834,VALID,0,VALID,24.261,VALID,346,VALID,0,
2014-12-11, 02:02:05,VALID,1009.22,VALID,0,INVALID,138.812,VALID,0,VALID,24.2591,VALID,346,VALID,0,
2014-12-11, 02:03:05,VALID,1009.24,VALID,0,INVALID,138.789,VALID,0,VALID,24.2591,VALID,346,VALID,0,
2014-12-11, 02:04:05,VALID,1009.23,VALID,0,INVALID,138.789,VALID,0,VALID,24.2396,VALID,346,VALID,0,
2014-12-11, 02:05:05,VALID,1009.25,VALID,0,INVALID,138.804,VALID,0,VALID,24.2183,VALID,346,VALID,0,
2014-12-11, 02:06:05,VALID,1009.24,VALID,0,INVALID,138.85,VALID,0,VALID,24.2202,VALID,346,VALID,0,
2014-12-11, 02:07:05,VALID,1009.25,VALID,0,INVALID,138.857,VALID,0,VALID,24.2202,VALID,346,VALID,0,
2014-12-11, 02:08:05,VALID,1009.26,VALID,0,INVALID,138.865,VALID,0,VALID,24.2202,VALID,346,VALID,0,
2014-12-11, 02:09:05,VALID,1009.23,VALID,0,INVALID,138.888,VALID,0,VALID,24.2007,VALID,346,VALID,0,
2014-12-11, 02:10:05,VALID,1009.25,VALID,0,INVALID,138.888,VALID,0,VALID,24.2007,VALID,346,VALID,0,
2014-12-11, 02:11:05,VALID,1009.24,VALID,0,INVALID,138.911,VALID,0,VALID,24.1793,VALID,346,VALID,0,
2014-12-11, 02:12:05,VALID,1009.23,VALID,0,INVALID,138.888,VALID,0,VALID,24.1812,VALID,346,VALID,0,
2014-12-11, 02:13:05,VALID,1009.23,VALID,0,INVALID,138.895,VALID,0,VALID,24.1599,VALID,346,VALID,0,
2014-12-11, 02:14:05,VALID,1009.2,VALID,0,INVALID,138.895,VALID,0,VALID,24.2007,VALID,346,VALID,0,
2014-12-11, 02:15:04,VALID,1009.18,VALID,0,INVALID,138.903,VALID,0,VALID,24.2007,VALID,346,VALID,0,
2014-12-11, 02:16:04,VALID,1009.15,VALID,0,INVALID,138.903,VALID,0.112112,VALID,24.1812,VALID,346,VALID,0,
2014-12-11, 02:17:04,VALID,1009.15,VALID,0,INVALID,138.911,VALID,0,VALID,24.1812,VALID,346,VALID,0,
2014-12-11, 02:18:04,VALID,1009.13,VALID,0,INVALID,138.964,VALID,0,VALID,24.183,VALID,346,VALID,0,
2014-12-11, 02:19:04,VALID,1009.11,VALID,0,INVALID,139.025,VALID,0.112112,VALID,24.1422,VALID,346,VALID,0,
2014-12-11, 02:20:04,VALID,1009.09,VALID,0,INVALID,139.033,VALID,0,VALID,24.1422,VALID,346,VALID,0,
2014-12-11, 02:21:04,VALID,1009.09,VALID,0,INVALID,139.04,VALID,0.112112,VALID,24.1209,VALID,346,VALID,0,
2014-12-11, 02:22:04,VALID,1009.09,VALID,0,INVALID,139.063,VALID,0,VALID,24.1227,VALID,346,VALID,0,
2014-12-11, 02:23:04,VALID,1009.1,VALID,0,INVALID,139.048,VALID,0,VALID,24.1227,VALID,346,VALID,0,
2014-12-11, 02:24:04,VALID,1009.09,VALID,0,INVALID,139.04,VALID,0,VALID,24.1032,VALID,346,VALID,0,
2014-12-11, 02:25:04,VALID,1009.06,VALID,0,INVALID,139.071,VALID,0.112112,VALID,24.1032,VALID,346,VALID,0,
2014-12-11, 02:26:04,VALID,1009.06,VALID,0,INVALID,139.025,VALID,0.112112,VALID,24.1227,VALID,346,VALID,0,
2014-12-11, 02:27:04,VALID,1009.03,VALID,0,INVALID,139.017,VALID,0,VALID,24.1032,VALID,346,VALID,0,
2014-12-11, 02:28:04,VALID,1008.98,VALID,0,INVALID,139.04,VALID,0,VALID,24.1032,VALID,346,VALID,0,
2014-12-11, 02:29:04,VALID,1008.98,VALID,0,INVALID,138.995,VALID,0,VALID,24.0837,VALID,346,VALID,0,
2014-12-11, 02:30:04,VALID,1008.93,VALID,0,INVALID,139.025,VALID,0,VALID,24.0837,VALID,346,VALID,0,
2014-12-11, 02:31:04,VALID,1008.91,VALID,0,INVALID,138.979,VALID,0,VALID,24.0837,VALID,346,VALID,0,
2014-12-11, 02:32:04,VALID,1008.88,VALID,0,INVALID,138.918,VALID,0,VALID,24.0837,VALID,346,VALID,0,
2014-12-11, 02:33:04,VALID,1008.87,VALID,0,INVALID,138.941,VALID,0,VALID,24.0837,VALID,346,VALID,0,
2014-12-11, 02:34:04,VALID,1008.85,VALID,0,INVALID,138.941,VALID,0,VALID,24.0643,VALID,346,VALID,0,
2014-12-11, 02:35:04,VALID,1008.84,VALID,0,INVALID,138.926,VALID,0.112112,VALID,24.0643,VALID,346,VALID,0,
2014-12-11, 02:36:04,VALID,1008.84,VALID,0,INVALID,138.972,VALID,0,VALID,24.0643,VALID,346,VALID,0,
2014-12-11, 02:37:04,VALID,1008.8,VALID,0,INVALID,138.987,VALID,0,VALID,24.0448,VALID,346,VALID,0,
2014-12-11, 02:38:04,VALID,1008.82,VALID,0,INVALID,139.017,VALID,0,VALID,24.0448,VALID,346,VALID,0,
2014-12-11, 02:39:04,VALID,1008.81,VALID,0,INVALID,139.025,VALID,0,VALID,24.0448,VALID,346,VALID,0,
2014-12-11, 02:40:04,VALID,1008.81,VALID,0,INVALID,139.025,VALID,0,VALID,24.0253,VALID,346,VALID,0,
2014-12-11, 02:41:04,VALID,1008.8,VALID,0,INVALID,139.063,VALID,0,VALID,24.0058,VALID,346,VALID,0,
2014-12-11, 02:42:04,VALID,1008.79,VALID,0,INVALID,139.048,VALID,0,VALID,24.0271,VALID,346,VALID,0,
2014-12-11, 02:43:04,VALID,1008.79,VALID,0,INVALID,138.987,VALID,0,VALID,24.0271,VALID,346,VALID,0,
2014-12-11, 02:44:04,VALID,1008.77,VALID,0,INVALID,139.017,VALID,0,VALID,24.0058,VALID,346,VALID,0,
2014-12-11, 02:45:04,VALID,1008.79,VALID,0,INVALID,139.025,VALID,0,VALID,23.9863,VALID,346,VALID,0,
2014-12-11, 02:46:04,VALID,1008.76,VALID,0,INVALID,138.987,VALID,0,VALID,24.0058,VALID,346,VALID,0,
2014-12-11, 02:47:04,VALID,1008.72,VALID,0,INVALID,138.926,VALID,0,VALID,24.0058,VALID,346,VALID,0,
2014-12-11, 02:48:04,VALID,1008.7,VALID,0,INVALID,138.903,VALID,0,VALID,23.9863,VALID,346,VALID,0,
2014-12-11, 02:49:04,VALID,1008.71,VALID,0,INVALID,138.911,VALID,0,VALID,24.0076,VALID,346,VALID,0,
2014-12-11, 02:50:04,VALID,1008.67,VALID,0,INVALID,138.857,VALID,0,VALID,24.0058,VALID,346,VALID,0,
2014-12-11, 02:51:04,VALID,1008.68,VALID,0,INVALID,138.88,VALID,0,VALID,23.9863,VALID,346,VALID,0,
2014-12-11, 02:52:04,VALID,1008.69,VALID,0,INVALID,138.827,VALID,0,VALID,23.9863,VALID,346,VALID,0,
2014-12-11, 02:53:04,VALID,1008.68,VALID,0,INVALID,138.766,VALID,0,VALID,24.0058,VALID,346,VALID,0,
2014-12-11, 02:54:04,VALID,1008.67,VALID,0,INVALID,138.705,VALID,0,VALID,23.9863,VALID,346,VALID,0,
2014-12-11, 02:55:04,VALID,1008.66,VALID,0,INVALID,138.69,VALID,0,VALID,23.9863,VALID,346,VALID,0,
2014-12-11, 02:56:04,VALID,1008.62,VALID,0,INVALID,138.674,VALID,0,VALID,24.0076,VALID,346,VALID,0,
2014-12-11, 02:57:04,VALID,1008.62,VALID,0,INVALID,138.629,VALID,0,VALID,23.9863,VALID,346,VALID,0,
2014-12-11, 02:58:04,VALID,1008.6,VALID,0,INVALID,138.629,VALID,0,VALID,23.9668,VALID,346,VALID,0,
2014-12-11, 02:59:04,VALID,1008.57,VALID,0,INVALID,138.651,VALID,0,VALID,23.9473,VALID,346,VALID,0,
2014-12-11, 03:00:04,VALID,1008.58,VALID,0,INVALID,138.667,VALID,0,VALID,23.9473,VALID,346,VALID,0,
2014-12-11, 03:01:04,VALID,1008.57,VALID,0,INVALID,138.644,VALID,0,VALID,23.9473,VALID,346,VALID,0,
2014-12-11, 03:02:04,VALID,1008.54,VALID,0,INVALID,138.682,VALID,0,VALID,23.9473,VALID,346,VALID,0,
2014-12-11, 03:03:04,VALID,1008.55,VALID,0,INVALID,138.735,VALID,0,VALID,23.9278,VALID,346,VALID,0,
2014-12-11, 03:04:04,VALID,1008.53,VALID,0,INVALID,138.781,VALID,0,VALID,23.9084,VALID,346,VALID,0,
2014-12-11, 03:05:04,VALID,1008.51,VALID,0,INVALID,138.804,VALID,0,VALID,23.9084,VALID,346,VALID,0,
2014-12-11, 03:06:04,VALID,1008.48,VALID,0,INVALID,138.781,VALID,0,VALID,23.8889,VALID,346,VALID,0,
2014-12-11, 03:07:04,VALID,1008.49,VALID,0,INVALID,138.842,VALID,0,VALID,23.8907,VALID,346,VALID,0,
2014-12-11, 03:08:04,VALID,1008.47,VALID,0,INVALID,138.888,VALID,0,VALID,23.8694,VALID,346,VALID,0,
2014-12-11, 03:09:04,VALID,1008.48,VALID,0,INVALID,138.903,VALID,0,VALID,23.8499,VALID,346,VALID,0,
2014-12-11, 03:10:04,VALID,1008.47,VALID,0,INVALID,138.85,VALID,0,VALID,23.8499,VALID,346,VALID,0,
2014-12-11, 03:11:04,VALID,1008.47,VALID,0,INVALID,138.834,VALID,0,VALID,23.8499,VALID,346,VALID,0,
2014-12-11, 03:12:04,VALID,1008.48,VALID,0,INVALID,138.804,VALID,0,VALID,23.8304,VALID,346,VALID,0,
2014-12-11, 03:13:04,VALID,1008.47,VALID,0,INVALID,138.812,VALID,0,VALID,23.8109,VALID,346,VALID,0,
2014-12-11, 03:14:04,VALID,1008.48,VALID,0,INVALID,138.781,VALID,0,VALID,23.8109,VALID,346,VALID,0,
2014-12-11, 03:15:04,VALID,1008.47,VALID,0,INVALID,138.735,VALID,0,VALID,23.8109,VALID,346,VALID,0,
2014-12-11, 03:16:04,VALID,1008.48,VALID,0,INVALID,138.712,VALID,0,VALID,23.772,VALID,346,VALID,0,
2014-12-11, 03:17:04,VALID,1008.49,VALID,0,INVALID,138.712,VALID,0,VALID,23.772,VALID,346,VALID,0,
2014-12-11, 03:18:04,VALID,1008.48,VALID,0,INVALID,138.728,VALID,0,VALID,23.733,VALID,346,VALID,0,
2014-12-11, 03:19:04,VALID,1008.5,VALID,0,INVALID,138.743,VALID,0,VALID,23.733,VALID,346,VALID,0,
2014-12-11, 03:20:04,VALID,1008.49,VALID,0,INVALID,138.796,VALID,0,VALID,23.7135,VALID,346,VALID,0,
2014-12-11, 03:21:04,VALID,1008.48,VALID,0,INVALID,138.857,VALID,0,VALID,23.6745,VALID,346,VALID,0,
2014-12-11, 03:22:04,VALID,1008.47,VALID,0,INVALID,138.888,VALID,0,VALID,23.655,VALID,346,VALID,0,
2014-12-11, 03:23:04,VALID,1008.44,VALID,0,INVALID,138.812,VALID,0,VALID,23.655,VALID,346,VALID,0,
2014-12-11, 03:24:04,VALID,1008.43,VALID,0,INVALID,138.834,VALID,0,VALID,23.6356,VALID,346,VALID,0,
2014-12-11, 03:25:04,VALID,1008.42,VALID,0,INVALID,138.781,VALID,0,VALID,23.6356,VALID,346,VALID,0,
2014-12-11, 03:26:04,VALID,1008.39,VALID,0,INVALID,138.758,VALID,0,VALID,23.6161,VALID,346,VALID,0,
2014-12-11, 03:27:04,VALID,1008.37,VALID,0,INVALID,138.644,VALID,0,VALID,23.6356,VALID,346,VALID,0,
2014-12-11, 03:28:04,VALID,1008.37,VALID,0,INVALID,138.568,VALID,0,VALID,23.6356,VALID,346,VALID,0,
2014-12-11, 03:29:04,VALID,1008.35,VALID,0,INVALID,138.491,VALID,0,VALID,23.6356,VALID,346,VALID,0,
2014-12-11, 03:30:04,VALID,1008.32,VALID,0,INVALID,138.369,VALID,0,VALID,23.6356,VALID,346,VALID,0,
2014-12-11, 03:31:04,VALID,1008.31,VALID,0,INVALID,138.324,VALID,0,VALID,23.6161,VALID,346,VALID,0,
2014-12-11, 03:32:04,VALID,1008.3,VALID,0,INVALID,138.316,VALID,0,VALID,23.5966,VALID,346,VALID,0,
2014-12-11, 03:33:04,VALID,1008.33,VALID,0,INVALID,138.362,VALID,0,VALID,23.5789,VALID,346,VALID,0,
2014-12-11, 03:34:04,VALID,1008.32,VALID,0,INVALID,138.27,VALID,0,VALID,23.5771,VALID,346,VALID,0,
2014-12-11, 03:35:04,VALID,1008.33,VALID,0,INVALID,138.232,VALID,0,VALID,23.5576,VALID,346,VALID,0,
2014-12-11, 03:36:04,VALID,1008.33,VALID,0,INVALID,138.301,VALID,0,VALID,23.5186,VALID,346,VALID,0,
2014-12-11, 03:37:04,VALID,1008.36,VALID,0,INVALID,138.263,VALID,0,VALID,23.4992,VALID,346,VALID,0,
2014-12-11, 03:38:04,VALID,1008.36,VALID,0,INVALID,138.293,VALID,0,VALID,23.4992,VALID,346,VALID,0,
2014-12-11, 03:39:04,VALID,1008.37,VALID,0,INVALID,138.24,VALID,0,VALID,23.4992,VALID,346,VALID,0,
2014-12-11, 03:40:04,VALID,1008.39,VALID,0,INVALID,138.224,VALID,0,VALID,23.4797,VALID,346,VALID,0,
2014-12-11, 03:41:04,VALID,1008.39,VALID,0,INVALID,138.102,VALID,0,VALID,23.4797,VALID,346,VALID,0,
2014-12-11, 03:42:04,VALID,1008.38,VALID,0,INVALID,137.973,VALID,0,VALID,23.4992,VALID,346,VALID,0,
2014-12-11, 03:43:04,VALID,1008.39,VALID,0,INVALID,137.805,VALID,0,VALID,23.5186,VALID,346,VALID,0,
2014-12-11, 03:44:04,VALID,1008.37,VALID,0,INVALID,137.637,VALID,0,VALID,23.5381,VALID,346,VALID,0,
2014-12-11, 03:45:04,VALID,1008.38,VALID,0,INVALID,137.332,VALID,0,VALID,23.5576,VALID,346,VALID,0,
2014-12-11, 03:46:04,VALID,1008.37,VALID,0,INVALID,137.058,VALID,0,VALID,23.6161,VALID,346,VALID,0,
2014-12-11, 03:47:04,VALID,1008.4,VALID,0,INVALID,136.814,VALID,0,VALID,23.6356,VALID,346,VALID,0,
2014-12-11, 03:48:04,VALID,1008.39,VALID,0,INVALID,136.707,VALID,0,VALID,23.6356,VALID,346,VALID,0,
2014-12-11, 03:49:04,VALID,1008.42,VALID,0,INVALID,136.615,VALID,0,VALID,23.6356,VALID,346,VALID,0,
2014-12-11, 03:50:04,VALID,1008.44,VALID,0,INVALID,136.592,VALID,0,VALID,23.6356,VALID,346,VALID,0,
2014-12-11, 03:51:04,VALID,1008.45,VALID,0,INVALID,136.531,VALID,0,VALID,23.6161,VALID,346,VALID,0,
2014-12-11, 03:52:04,VALID,1008.46,VALID,0,INVALID,136.501,VALID,0,VALID,23.5966,VALID,346,VALID,0,
2014-12-11, 03:53:04,VALID,1008.46,VALID,0,INVALID,136.539,VALID,0,VALID,23.5771,VALID,346,VALID,0,
2014-12-11, 03:54:04,VALID,1008.44,VALID,0,INVALID,136.592,VALID,0,VALID,23.5576,VALID,346,VALID,0,
2014-12-11, 03:55:04,VALID,1008.41,VALID,0,INVALID,136.638,VALID,0,VALID,23.5381,VALID,346,VALID,0,